STARLINK-31784 (59618 NORAD) Tracking and Keplerian Element Data

This shows tracking and keplerian element data for the satellite.

Feedback or suggestion? Click here.




ElementValue
Catalog59618
NameSTARLINK-31784
Epoch Orbit744
Epoch Day160.06862037
Epoch Year2024
RAAN87.9855
Inclination43.0013
Eccentricity0.0001833
Argument of Perigee276.181
Mean Anonmoly83.8837
Mean Motion15.40701394
Decay Rate0.00013698
L11 59618U 24080T 24160.06862037 .00013698 00000+0 33457-3 0 9999
L22 59618 43.0013 87.9855 0001833 276.1810 83.8837 15.40701394 7440



Live tracking and technical data element details for STARLINK-31784 (NORAD 59618). STARLINK-31784 can be tracked NOW for your location showing map with azimuth and elevation plus other details from your city location.







IsCatalogInMostPopularTable: catalog: 59618, numindb: 14
Update: records affected: 1



GetName: 59618 STARLINK-31784

Hit Count: updated at: Fri, 14 Jun 2024 19:40:06 GMT